sat.trackr.live / text

‹ back to catalog

SHIYAN-27 OBJECT E

NORAD 63603 · 2025-078E

PAYLOAD ACTIVE UNKNOWN

§ Identity

Operator
Country
PRC
Launch date
2025-04-18
Launch site
TAISC
Launch vehicle
Mass (kg)
RCS (m²)

External: N2YO · Heavens-Above · Gunter

§ Orbital elements

Epoch: 2026-09-21T23:40:27.998688Z

Period
106.10 min
Inclination
99.6939°
Eccentricity
0.0001031
Mean motion
13.57250673 rev/d
Perigee alt
1,044.9 km
Apogee alt
1,046.5 km
Semi-major
7,423.8 km
B*
7.3387e-5
RAAN
270.6922°
Arg perigee
88.5303°
Mean anomaly
271.5954°
Rev number
7,066

§ Raw data

SHIYAN-27 OBJECT E1 63603U 25078E   26264.98643517  .00000008  00000+0  73387-4 0  99922 63603  99.6939 270.6922 0001031  88.5303 271.5954 13.57250673 70666

JSON: /api/v1/satellites/63603 · /tle

For live sub-satellite position, see the globe view (requires WebGL).

§ Visibility from observer

Set your observer location to see the next 7 days of passes ≥ 10°. The values pass through the URL so the page stays shareable.

No JS? Fill the form by hand. The geolocation button needs JavaScript.